Precipitable_Water
0.36 0.37 0.39 0.42 0.44 0.50 0.60 0.72 0.81 0.90 1.00 1.03 1.01 1.03 0.98 1.11 1.22 1.24 1.23 1.22 1.21 1.26 1.28 1.29 1.34 1.37 1.31 1.32 1.35 1.34 1.27 1.24 1.25 1.17 1.13 1.12 1.08 0.96 0.67 0.60 0.64 0.63 0.62
0.32 0.35 0.36 0.38 0.43 0.49 0.58 0.64 0.75 0.87 0.93 1.01 1.04 1.09 1.09 1.15 1.23 1.30 1.27 1.25 1.27 1.30 1.32 1.30 1.31 1.35 1.35 1.34 1.34 1.31 1.23 1.22 1.21 1.07 1.02 0.87 0.76 0.68 0.66 0.66 0.64 0.63 0.68
0.32 0.34 0.35 0.37 0.42 0.50 0.61 0.68 0.72 0.85 0.95 1.01 1.14 1.16 1.20 1.22 1.18 1.21 1.21 1.21 1.27 1.32 1.32 1.32 1.32 1.35 1.36 1.29 1.32 1.29 1.23 1.14 1.16 1.16 1.01 0.70 0.59 0.68 0.69 0.68 0.69 0.68 0.70
0.37 0.38 0.39 0.42 0.46 0.55 0.68 0.76 0.83 0.91 0.98 1.04 1.06 1.02 0.95 0.93 1.03 1.14 1.23 1.23 1.26 1.31 1.33 1.32 1.33 1.35 1.35 1.30 1.28 1.29 1.24 1.18 1.08 1.05 0.88 0.74 0.70 0.55 0.54 0.70 0.72 0.75 0.75
0.44 0.47 0.48 0.48 0.52 0.58 0.71 0.82 0.91 0.99 1.06 1.05 1.04 1.06 1.02 1.09 1.16 1.17 1.20 1.22 1.22 1.23 1.27 1.31 1.35 1.35 1.31 1.24 1.25 1.19 1.16 1.17 1.05 0.91 0.69 0.66 0.64 0.66 0.60 0.53 0.63 0.70 0.72
0.45 0.49 0.52 0.54 0.54 0.61 0.71 0.83 0.94 0.98 1.09 1.12 1.14 1.09 1.04 1.08 1.13 1.20 1.23 1.18 1.18 1.21 1.26 1.30 1.31 1.29 1.22 1.18 1.15 1.18 1.13 1.04 0.94 0.71 0.69 0.64 0.59 0.59 0.63 0.63 0.61 0.60 0.65
0.43 0.46 0.49 0.51 0.53 0.56 0.61 0.73 0.86 0.93 1.04 1.08 1.14 1.19 1.18 1.13 1.16 1.18 1.18 1.18 1.18 1.18 1.20 1.24 1.20 1.21 1.18 1.17 1.14 1.10 1.00 0.91 0.71 0.71 0.69 0.70 0.69 0.73 0.66 0.62 0.59 0.58 0.63
0.33 0.37 0.44 0.49 0.51 0.53 0.59 0.67 0.75 0.88 1.05 1.10 1.12 1.19 1.22 1.25 1.32 1.29 1.26 1.24 1.25 1.27 1.31 1.23 1.17 1.17 1.12 1.11 1.06 1.04 0.91 0.79 0.71 0.70 0.66 0.67 0.64 0.65 0.65 0.63 0.60 0.54 0.55
0.28 0.31 0.37 0.41 0.45 0.48 0.51 0.61 0.69 0.81 0.94 1.02 1.13 1.15 1.19 1.30 1.27 1.31 1.29 1.30 1.32 1.29 1.22 1.14 1.14 1.13 1.14 1.06 1.05 0.89 0.83 0.73 0.73 0.62 0.64 0.62 0.63 0.65 0.67 0.66 0.65 0.56 0.47
0.24 0.24 0.29 0.33 0.36 0.39 0.45 0.57 0.69 0.77 0.88 1.03 1.10 1.12 1.22 1.28 1.29 1.30 1.26 1.23 1.21 1.14 1.07 1.06 1.09 1.09 1.06 1.00 0.96 0.85 0.75 0.68 0.61 0.64 0.61 0.62 0.63 0.65 0.64 0.62 0.60 0.59 0.54
0.27 0.28 0.34 0.37 0.39 0.42 0.47 0.57 0.71 0.82 0.90 0.96 1.04 1.13 1.19 1.21 1.23 1.19 1.17 1.18 1.15 1.11 1.04 1.10 1.05 1.06 1.02 0.95 0.81 0.70 0.65 0.60 0.61 0.63 0.64 0.61 0.62 0.61 0.58 0.57 0.60 0.57 0.54
0.37 0.36 0.42 0.46 0.47 0.49 0.55 0.65 0.76 0.84 0.91 1.00 1.07 1.10 1.12 1.15 1.11 1.11 1.14 1.14 1.07 1.08 1.14 1.01 1.09 1.03 0.95 0.76 0.71 0.61 0.62 0.63 0.62 0.62 0.60 0.58 0.58 0.57 0.57 0.61 0.59 0.55 0.52
0.42 0.41 0.47 0.50 0.53 0.58 0.66 0.72 0.79 0.86 0.93 0.98 0.97 0.99 1.03 1.02 1.04 1.04 1.08 1.06 1.07 0.98 1.18 1.11 0.98 0.93 0.81 0.70 0.65 0.62 0.64 0.62 0.60 0.59 0.57 0.56 0.55 0.54 0.57 0.58 0.58 0.54 0.49
0.47 0.46 0.46 0.50 0.56 0.62 0.66 0.75 0.82 0.88 0.92 0.91 0.94 0.97 0.99 0.99 1.00 1.03 1.00 0.98 0.93 1.08 0.92 0.98 0.89 0.78 0.66 0.63 0.64 0.64 0.60 0.60 0.60 0.59 0.57 0.56 0.56 0.52 0.58 0.58 0.52 0.49 0.47
0.50 0.50 0.49 0.54 0.56 0.61 0.67 0.73 0.80 0.86 0.92 0.94 0.95 0.98 1.02 1.00 1.01 0.99 0.94 0.91 0.92 0.90 0.96 0.85 0.75 0.66 0.62 0.65 0.62 0.61 0.61 0.59 0.57 0.56 0.57 0.58 0.56 0.59 0.58 0.54 0.51 0.50 0.45
0.42 0.47 0.50 0.53 0.59 0.63 0.68 0.72 0.75 0.82 0.92 0.95 0.95 0.98 0.99 1.00 0.98 0.93 0.88 0.86 0.84 0.84 0.79 0.76 0.65 0.64 0.64 0.63 0.64 0.63 0.59 0.58 0.56 0.55 0.57 0.57 0.57 0.55 0.54 0.55 0.53 0.49 0.44
0.42 0.46 0.47 0.50 0.56 0.63 0.70 0.70 0.72 0.78 0.83 0.88 0.92 0.94 0.95 0.93 0.91 0.89 0.86 0.80 0.77 0.75 0.71 0.63 0.61 0.61 0.62 0.65 0.63 0.61 0.58 0.58 0.58 0.57 0.57 0.55 0.53 0.55 0.55 0.52 0.50 0.48 0.47
0.40 0.51 0.55 0.55 0.54 0.62 0.71 0.74 0.78 0.78 0.79 0.80 0.86 0.91 0.89 0.89 0.88 0.84 0.82 0.77 0.72 0.69 0.63 0.58 0.58 0.58 0.62 0.64 0.61 0.59 0.60 0.60 0.59 0.60 0.58 0.55 0.54 0.54 0.51 0.48 0.45 0.44 0.46
0.39 0.58 0.61 0.65 0.64 0.64 0.67 0.68 0.69 0.72 0.72 0.74 0.77 0.83 0.88 0.87 0.83 0.78 0.77 0.73 0.70 0.65 0.59 0.57 0.55 0.57 0.60 0.61 0.61 0.61 0.61 0.60 0.62 0.58 0.58 0.56 0.54 0.53 0.51 0.45 0.42 0.41 0.44
0.45 0.53 0.60 0.62 0.65 0.67 0.75 0.73 0.66 0.70 0.68 0.68 0.74 0.82 0.88 0.85 0.79 0.78 0.77 0.75 0.69 0.61 0.59 0.56 0.63 0.62 0.61 0.64 0.61 0.64 0.65 0.62 0.57 0.57 0.58 0.56 0.54 0.52 0.48 0.43 0.40 0.36 0.39
0.46 0.52 0.52 0.56 0.64 0.71 0.76 0.73 0.72 0.64 0.68 0.73 0.76 0.82 0.84 0.83 0.83 0.83 0.79 0.73 0.63 0.58 0.56 0.58 0.59 0.60 0.61 0.60 0.62 0.63 0.62 0.60 0.58 0.55 0.54 0.54 0.54 0.50 0.46 0.43 0.38 0.37 0.39
0.45 0.51 0.49 0.54 0.61 0.73 0.74 0.69 0.68 0.73 0.76 0.77 0.78 0.81 0.81 0.83 0.83 0.80 0.77 0.69 0.62 0.55 0.55 0.58 0.58 0.60 0.60 0.65 0.67 0.69 0.65 0.59 0.55 0.53 0.54 0.54 0.52 0.47 0.44 0.39 0.38 0.38 0.37
0.46 0.55 0.51 0.59 0.64 0.67 0.71 0.67 0.67 0.74 0.77 0.78 0.78 0.81 0.77 0.81 0.85 0.81 0.72 0.65 0.61 0.58 0.59 0.61 0.59 0.63 0.70 0.69 0.67 0.61 0.58 0.58 0.56 0.56 0.55 0.52 0.49 0.45 0.39 0.37 0.36 0.36 0.35
0.46 0.53 0.51 0.59 0.63 0.65 0.68 0.68 0.68 0.68 0.68 0.71 0.73 0.75 0.77 0.79 0.80 0.76 0.70 0.63 0.61 0.59 0.60 0.64 0.69 0.68 0.66 0.62 0.60 0.58 0.58 0.58 0.56 0.55 0.53 0.50 0.47 0.41 0.38 0.35 0.35 0.34 0.34
0.48 0.53 0.51 0.61 0.66 0.62 0.64 0.67 0.67 0.66 0.68 0.69 0.69 0.71 0.75 0.75 0.74 0.70 0.65 0.61 0.64 0.69 0.69 0.71 0.70 0.64 0.57 0.57 0.57 0.57 0.56 0.56 0.55 0.53 0.51 0.46 0.42 0.37 0.33 0.32 0.32 0.33 0.33
0.49 0.54 0.55 0.67 0.67 0.65 0.70 0.69 0.69 0.69 0.69 0.67 0.67 0.68 0.71 0.71 0.69 0.64 0.64 0.70 0.72 0.73 0.74 0.73 0.68 0.62 0.60 0.57 0.57 0.57 0.56 0.55 0.54 0.49 0.45 0.43 0.39 0.33 0.31 0.30 0.30 0.31 0.31
Wind_Speed
38 38 37 36 37 36 37 36 34 32 29 28 27 28 28 27 26 26 26 25 24 23 22 22 21 20 20 20 20 21 21 22 22 24 26 28 29 31 32 33 32 33 35
38 40 39 38 38 37 36 37 36 34 32 31 29 28 29 29 28 27 27 27 26 25 24 24 23 22 22 22 21 21 21 22 23 23 25 27 28 29 30 31 33 35 38
36 36 36 36 35 36 35 35 36 36 34 32 29 28 29 29 29 29 29 29 28 27 26 26 25 24 24 24 24 24 24 24 25 25 26 27 28 30 32 33 35 37 39
35 34 33 34 33 34 35 34 35 35 35 33 31 30 29 29 31 30 30 30 30 30 29 28 27 26 26 25 26 26 26 26 27 28 29 30 31 31 32 33 36 39 39
37 37 35 36 35 35 35 36 37 37 36 34 33 32 30 30 29 30 31 30 30 30 29 29 28 28 27 27 27 27 27 28 29 29 30 30 31 32 34 36 37 40 40
36 35 33 31 32 33 35 35 37 37 35 36 36 34 32 30 29 30 31 31 31 31 31 31 30 30 29 29 28 28 29 29 29 30 30 31 32 34 35 39 41 42 41
36 36 35 34 33 33 32 33 35 38 38 37 35 35 35 33 32 31 31 32 32 31 31 31 31 31 30 30 29 29 30 30 30 30 30 33 34 36 38 40 42 43 43
39 39 39 38 38 37 36 36 35 37 39 39 38 36 35 33 33 32 32 32 32 32 32 32 32 31 31 30 30 30 30 30 30 31 32 34 35 37 39 40 41 43 41
33 37 38 39 40 40 41 41 39 38 39 39 39 37 36 35 34 33 32 33 32 32 33 33 32 31 30 31 30 30 30 30 31 31 33 34 37 39 40 41 41 40 40
36 35 35 37 40 42 41 40 39 38 39 38 37 36 35 35 34 33 31 31 31 31 31 31 31 31 31 30 30 30 30 30 31 32 34 36 38 40 41 41 39 39 40
36 34 34 34 35 37 37 37 38 36 36 37 35 35 34 33 32 32 31 30 30 31 31 31 30 30 31 30 30 30 30 30 32 33 35 37 40 41 39 38 38 38 38
32 32 33 32 31 32 34 34 36 36 34 33 34 34 32 31 31 30 30 30 30 30 30 30 29 30 29 30 29 29 30 31 32 34 36 38 40 41 38 38 37 37 37
33 34 33 32 30 29 30 33 32 32 32 31 31 31 30 29 29 29 29 29 29 28 29 29 29 29 30 29 30 30 30 31 33 35 37 39 40 38 37 36 35 35 36
32 34 34 34 33 31 30 31 31 32 32 32 32 31 31 29 28 28 27 27 27 28 28 29 29 29 29 29 29 29 30 32 34 35 37 39 38 37 35 34 33 33 34
34 33 32 32 32 33 32 32 33 33 34 34 33 33 32 30 29 28 27 27 27 28 29 30 29 29 29 29 29 30 31 32 34 36 37 38 37 36 34 33 32 32 33
36 36 37 35 35 33 32 32 33 34 36 36 35 34 33 31 30 29 28 27 27 27 29 29 29 29 29 29 30 31 32 33 34 35 36 37 35 33 32 31 30 31 32
39 38 40 40 39 39 37 35 34 33 35 36 36 35 34 33 31 31 30 29 29 29 29 30 30 30 30 30 31 32 33 33 34 34 34 34 32 30 29 28 29 30 31
40 39 38 39 41 41 43 40 38 37 37 36 37 36 35 34 33 32 31 31 30 30 30 30 30 30 31 31 31 32 32 32 33 33 32 30 30 27 26 26 27 28 28
41 38 38 37 38 40 43 46 45 43 41 40 40 39 38 36 35 34 32 31 31 31 31 31 31 30 31 31 31 30 30 32 32 30 30 30 26 25 25 25 25 26 25
40 41 41 41 38 37 38 40 44 44 43 41 40 39 39 37 35 34 33 33 32 32 31 31 31 30 30 30 30 31 33 32 32 31 30 26 25 24 23 23 23 23 23
43 44 44 43 43 39 37 36 37 41 42 39 39 38 37 35 35 34 33 32 31 31 31 30 31 31 32 32 32 32 33 31 30 27 25 24 23 22 21 21 21 21 21
45 45 44 44 43 41 41 39 38 37 38 37 36 36 37 37 36 35 34 33 32 31 31 30 30 31 31 31 31 32 30 27 27 25 24 23 21 20 19 19 19 19 20
43 41 40 42 43 43 44 43 40 37 36 35 35 37 37 37 36 35 34 33 32 32 31 30 29 30 30 31 32 29 26 26 24 23 21 20 19 18 18 18 18 19 19
42 40 38 40 40 42 44 44 42 40 38 37 36 37 36 35 36 35 34 34 34 32 31 30 29 28 29 28 26 24 24 22 21 20 19 18 18 17 17 17 18 18 19
39 37 35 34 35 36 40 42 42 39 37 35 35 36 36 36 35 34 34 33 33 33 32 31 28 27 26 26 23 22 21 20 19 18 18 17 17 17 17 17 17 18 19
37 33 31 30 27 26 32 36 39 39 38 36 35 35 35 35 34 33 31 31 32 30 30 28 27 25 24 22 22 20 19 17 17 16 17 17 16 16 16 16 17 18 19
Wind_Direction
251 251 250 251 251 253 251 251 250 248 247 247 250 251 249 250 252 253 253 253 253 253 254 255 257 260 262 265 268 271 273 277 280 281 280 280 279 279 279 279 280 281 283
252 252 253 251 251 250 251 247 247 245 245 246 250 251 248 250 252 253 253 252 253 253 254 255 257 259 263 266 268 271 276 279 283 285 285 286 285 283 281 281 283 285 286
249 251 252 250 249 247 249 248 245 243 244 247 249 250 249 251 252 252 252 252 252 252 254 256 258 260 264 267 269 272 274 279 283 286 288 289 287 288 285 284 286 288 289
248 250 250 247 248 249 248 248 244 242 243 246 247 246 248 250 251 251 252 252 252 253 255 256 258 261 264 267 270 273 276 279 282 287 289 290 290 291 291 288 289 291 292
248 250 251 250 250 251 250 248 245 244 245 246 246 245 248 251 253 252 251 252 254 253 255 256 257 261 264 268 271 274 277 280 283 286 289 292 292 292 292 294 294 294 293
246 248 249 250 249 250 251 250 247 244 244 244 244 245 246 248 251 252 252 253 254 255 255 256 257 260 263 266 272 274 278 281 285 287 286 291 294 295 295 295 296 296 297
248 250 250 249 249 249 251 251 249 246 244 243 244 244 246 247 249 250 254 254 255 255 254 255 257 259 262 267 271 275 279 281 284 287 288 292 294 296 297 297 298 297 298
249 250 250 250 250 251 252 253 252 249 244 243 243 244 246 247 250 252 256 256 255 255 255 255 256 257 262 266 270 275 278 281 283 287 291 294 296 298 299 299 299 299 297
250 251 251 252 253 252 252 251 252 249 245 243 242 242 244 246 250 253 258 255 254 256 255 254 254 258 259 267 270 275 277 282 284 288 292 295 298 300 300 300 299 298 299
255 255 254 255 255 254 251 249 247 247 243 242 240 240 243 246 250 253 255 254 255 254 253 252 252 256 261 266 269 275 278 281 285 289 293 297 300 300 301 301 299 297 297
253 252 255 257 258 252 248 245 243 243 243 240 238 238 240 245 249 252 253 255 256 254 252 248 253 256 262 265 269 275 277 281 286 290 294 298 302 302 301 300 299 298 297
251 249 250 257 257 251 244 244 240 240 240 237 235 236 240 244 248 251 253 257 258 253 249 252 253 258 260 266 271 274 278 283 287 291 295 300 303 303 300 299 299 298 299
253 251 251 255 255 252 244 241 238 235 235 232 232 235 238 244 247 251 254 257 253 249 247 249 255 256 262 266 272 275 279 284 288 292 296 300 302 302 300 300 298 299 300
254 254 254 254 252 248 244 240 238 236 232 232 236 236 239 243 247 249 254 252 252 243 249 251 255 259 263 267 271 276 280 285 289 294 298 301 302 301 300 300 299 300 302
257 255 253 252 251 248 245 242 240 237 235 235 238 238 240 243 245 249 252 252 248 248 249 251 256 261 263 269 273 277 282 286 290 294 298 300 300 300 298 299 299 301 303
261 257 254 251 248 246 244 242 241 240 237 237 239 239 238 242 246 247 248 248 250 249 251 252 258 260 265 268 273 279 283 287 290 294 298 300 300 299 298 298 299 301 304
260 259 254 252 248 247 245 244 242 240 239 239 238 239 240 243 245 245 246 247 249 250 252 255 259 262 266 270 275 280 284 287 291 294 298 299 299 298 298 299 300 303 306
260 259 258 253 249 248 244 244 243 243 242 241 240 240 241 242 243 244 245 247 249 250 253 257 260 263 267 271 275 279 284 287 290 293 297 299 298 297 298 300 303 305 309
258 256 257 256 253 249 246 244 242 242 242 243 243 242 241 241 243 242 243 246 247 251 255 258 261 264 268 270 275 277 282 286 291 292 295 296 294 295 298 300 304 307 310
254 257 257 255 254 252 246 241 240 239 240 241 242 242 239 239 239 240 242 246 249 252 256 259 262 264 268 270 273 276 283 285 288 289 291 290 291 293 296 299 303 306 310
255 259 257 256 252 250 242 240 239 237 239 241 238 235 235 236 237 239 242 245 249 252 256 259 263 265 268 271 275 277 282 283 285 286 287 287 290 291 295 298 301 305 310
256 258 256 253 250 245 241 238 238 239 236 235 233 233 237 239 239 239 242 246 249 252 255 259 263 266 269 271 274 280 277 276 280 281 283 284 286 289 292 296 301 306 310
253 255 256 253 249 242 238 237 238 235 233 233 236 235 240 239 237 238 241 245 249 253 257 258 263 266 268 273 276 272 272 274 276 279 277 278 283 287 290 296 301 305 309
248 253 258 251 247 243 239 238 234 234 235 237 238 238 237 235 237 238 243 246 248 252 253 259 261 265 272 272 272 265 270 270 273 273 272 275 280 284 290 295 300 305 309
248 250 253 246 246 244 236 233 232 231 232 233 238 237 236 235 235 240 243 245 249 251 253 256 256 264 267 269 264 261 266 266 266 269 271 274 280 285 289 294 299 304 308
241 245 246 237 237 237 230 228 228 229 231 234 235 234 231 231 233 236 242 248 247 248 251 255 256 261 263 261 259 258 259 259 262 267 271 276 281 284 288 293 299 304 308